Hourly Data Report for May 20, 2003

SHERBROOKE A
QUEBEC

45°26'00.000" N
71°41'00.000" W
241.40 m
7028124
71610
YSC

Download Data

Hourly Data (May 2003)
Hourly Data Report for May 20, 2003
TIME
LST
Temp Definition
°C
Dew Point Definition
°C
Rel Hum Definition
%
Precip. Amount Definition
mm

Wind Dir Definition
10's deg

Wind Spd Definition
km/h
Visibility Definition
km
Stn Press Definition
kPa
Hmdx Definition


Wind Chill Definition


Weather Definition


00:00 8.6 LegendMM LegendMM   9 9 15.0 99.48      
01:00 8.0 LegendMM LegendMM   30 4 15.0 99.50      
02:00 7.3 LegendMM LegendMM   12 6 15.0 99.52      
03:00 7.5 LegendMM LegendMM   8 6 15.0 99.52      
04:00 7.0 LegendMM LegendMM   12 6 15.0 99.52      
05:00 7.0 LegendMM LegendMM     0 15.0 99.55      
06:00 11.1 LegendMM LegendMM   8 4 15.0 99.57      
07:00 16.4 8.8 61     0 24.1 99.58     Mainly Clear
08:00 19.9 6.5 42   24 6 24.1 99.55     Mainly Clear
09:00 23.0 7.9 38   24 7 24.1 99.49     Mainly Clear
10:00 24.8 5.7 29   28 13 24.1 99.43     Mostly Cloudy
11:00 25.7 5.0 26   28 9 24.1 99.36 25   Mostly Cloudy
12:00 25.5 6.0 29   14 11 24.1 99.26 25   Mainly Clear
13:00 25.4 5.6 28   25 9 24.1 99.15 25   Mostly Cloudy
14:00 27.4 5.4 25   21 15 24.1 99.05 27   Mainly Clear
15:00 27.8 5.0 23   21 13 24.1 98.93 27   Mainly Clear
16:00 28.1 6.1 25   23 19 24.1 98.83 28   Mainly Clear
17:00 26.3 LegendMM LegendMM   24 17 15.0 98.76      
18:00 25.4 LegendMM LegendMM   23 9 15.0 98.72      
19:00 21.3 LegendMM LegendMM   23 7 15.0 98.69      
20:00 17.0 LegendMM LegendMM   18 4 15.0 98.67      
21:00 17.7 LegendMM LegendMM   17 9 15.0 98.67      
22:00 19.0 LegendMM LegendMM   20 7 15.0 98.65      
23:00 18.3 LegendMM LegendMM   19 6 15.0 98.62      

Notes on Data Quality.

Legend

  • E = Estimated
  • M = Missing
  • NA = Not Available*
  • [empty] = Indicates an unobserved value
Date modified: